Theta_e
329 326 324 323 324 324 324 325 325 326 326 328 329 330 330 331 331 328 325 322 319 317 317 318 317 315 315 316 318 319 321 320 319 319 319 319 320 323 324 325 325 326
329 328 325 323 324 324 324 325 325 325 326 328 329 329 329 331 330 328 325 322 319 318 317 317 316 314 313 314 315 316 317 317 316 317 317 317 318 320 322 323 323 324
329 327 326 324 324 324 324 325 325 325 326 328 329 329 330 332 330 329 328 324 320 318 317 316 316 315 314 313 313 313 314 314 314 315 316 317 317 317 320 323 323 322
329 327 325 324 324 324 324 325 326 326 327 328 330 330 332 332 329 329 329 326 323 320 318 317 317 316 315 314 312 313 313 313 313 314 315 317 319 319 320 322 322 321
328 327 325 324 325 324 324 325 326 326 327 329 330 330 331 331 329 329 328 328 326 323 320 317 317 317 315 314 313 312 313 312 312 313 313 315 319 320 321 321 319 319
325 325 324 324 324 324 324 324 325 326 327 329 330 329 330 331 330 328 328 328 328 326 322 319 318 317 315 314 313 312 312 311 311 312 312 312 315 317 319 318 315 314
322 323 324 325 325 324 325 326 326 326 327 329 330 329 329 331 330 329 328 328 328 327 325 321 319 318 316 315 315 313 313 311 310 310 310 310 310 310 312 311 309 308
321 321 323 324 324 324 325 326 327 326 327 328 329 328 329 330 330 330 328 328 328 328 326 323 321 319 317 316 315 315 313 311 310 309 309 309 307 305 305 305 305 304
321 321 322 323 323 324 325 326 326 325 327 328 328 328 329 329 330 330 329 328 329 328 327 324 323 320 318 317 316 315 313 311 310 309 308 307 305 303 303 303 303 303
321 321 322 322 322 323 324 324 325 325 326 328 329 330 330 330 329 329 329 329 329 328 327 325 324 321 319 317 315 314 312 310 309 308 306 305 304 303 302 302 302 302
320 321 321 322 322 322 323 323 324 325 325 328 330 331 331 331 330 329 329 329 329 328 327 325 324 322 319 317 315 313 311 309 308 306 305 305 304 302 301 301 301 301
320 320 321 322 321 321 322 323 324 324 325 328 329 330 332 332 332 332 331 331 329 328 327 326 325 322 318 316 314 312 310 308 307 306 305 304 304 302 301 301 300 300
320 320 321 321 321 322 322 322 323 323 324 326 327 330 333 333 333 333 333 331 329 328 327 326 325 323 319 315 313 312 310 308 307 306 305 305 304 303 301 301 300 300
320 320 320 321 321 321 322 323 323 323 324 326 327 331 334 333 333 333 333 331 329 328 327 326 325 323 319 315 313 311 310 308 307 307 306 306 305 304 302 301 300 299
321 320 320 321 321 322 322 322 323 323 325 326 329 333 334 334 334 334 333 331 329 328 327 327 326 324 319 315 313 311 310 309 308 307 308 308 306 305 305 303 300 299
324 322 321 321 322 322 322 322 321 323 325 326 330 334 335 335 335 335 333 332 331 330 328 327 326 324 320 315 312 311 310 309 308 309 309 309 308 309 308 306 301 299
328 327 324 322 322 322 322 322 322 323 326 328 330 334 335 336 335 334 333 333 332 331 329 327 326 324 320 315 311 310 309 309 309 309 310 309 310 311 311 308 303 299
329 329 329 326 325 324 324 324 324 325 329 330 330 333 335 335 335 334 334 334 333 331 329 327 326 324 321 315 311 309 309 308 309 309 310 310 310 311 312 310 305 299
330 330 330 329 329 327 326 327 327 329 331 331 331 333 334 336 336 335 334 334 334 332 329 327 326 325 321 314 310 309 308 309 309 310 311 312 311 311 310 310 307 302
333 331 330 331 331 330 329 329 330 331 332 332 332 334 336 336 336 335 335 335 334 332 330 327 326 324 319 313 310 308 308 309 310 311 313 313 312 312 310 310 310 305
333 333 332 332 333 333 331 331 331 331 333 334 335 335 336 336 336 336 335 334 334 333 330 327 325 321 315 311 309 307 308 309 309 311 312 312 312 313 312 309 306 302
332 334 333 333 333 334 333 332 332 332 334 336 336 335 336 336 336 336 335 335 334 332 330 327 324 319 313 309 307 307 307 308 309 310 309 310 312 312 308 304 300 298
332 333 334 334 333 333 333 333 332 332 334 336 336 335 336 337 337 336 335 335 334 333 330 327 323 317 312 308 306 307 307 308 309 308 307 308 309 306 301 298 297 297
331 332 334 334 333 333 333 333 333 333 333 335 336 336 336 337 337 337 335 334 333 331 328 326 322 316 311 308 307 307 307 309 309 308 306 307 308 305 299 297 299 301
332 332 333 334 333 334 333 333 334 334 333 334 335 336 337 337 338 337 335 334 332 329 327 325 322 316 312 310 307 306 309 311 310 309 308 309 310 307 302 300 303 305
331 331 332 333 333 333 332 333 334 334 334 334 335 336 337 338 338 337 336 334 331 328 327 324 320 316 313 310 308 309 311 312 310 309 309 310 311 309 306 304 305 306
Wind_Speed
13 13 15 16 16 15 15 14 14 15 15 14 14 13 12 11 8 7 8 8 9 10 10 9 10 10 10 10 10 10 10 10 11 10 8 8 7 6 6 6 6 6
15 15 15 16 16 15 15 14 14 15 14 13 13 12 11 9 7 6 7 8 9 10 10 9 10 10 10 10 9 10 10 10 10 9 8 8 7 6 6 6 5 5
18 16 16 16 16 15 15 15 14 13 13 12 12 11 9 8 6 5 6 7 9 9 9 8 9 9 9 9 8 9 9 10 10 8 7 8 7 7 7 6 5 4
20 18 17 16 16 16 16 16 14 13 12 12 11 10 8 7 5 5 5 6 7 8 7 7 8 8 7 7 7 8 8 9 9 7 6 6 6 6 6 6 5 5
21 19 18 18 17 17 17 17 15 14 13 11 11 9 8 6 5 4 5 5 6 6 5 5 6 6 6 6 6 7 7 8 7 6 5 5 4 4 4 4 3 4
22 20 19 19 18 18 18 17 16 14 13 12 11 10 9 6 5 3 4 4 4 4 3 3 4 5 5 5 5 6 6 6 6 5 5 5 3 2 2 2 2 3
23 21 20 20 19 18 17 17 16 15 14 13 12 11 9 7 5 4 2 2 2 1 1 1 2 3 4 4 4 5 5 4 4 4 4 4 3 3 3 3 3 3
23 23 22 21 21 20 18 17 17 16 16 14 13 11 10 8 7 6 4 2 1 1 2 2 0 2 3 3 3 4 4 3 2 2 3 3 3 4 5 4 3 3
25 24 24 23 23 22 20 19 18 18 17 16 14 12 11 10 9 8 6 4 4 4 4 3 2 0 1 1 2 2 2 2 1 1 2 2 2 3 4 3 2 2
26 26 26 25 24 23 22 21 20 20 19 17 16 14 12 12 11 10 9 7 7 7 6 5 4 2 1 1 1 2 2 2 1 1 1 1 1 2 3 2 1 1
27 27 27 26 25 24 23 22 21 20 20 19 18 16 14 14 14 13 12 10 10 9 8 6 5 4 3 2 3 3 3 3 2 1 1 1 1 1 2 2 1 1
28 29 29 28 27 25 24 23 22 21 21 21 19 17 16 16 15 14 14 13 12 12 10 8 6 5 4 4 4 4 4 4 3 3 2 2 1 2 2 2 2 2
29 30 30 29 28 27 26 24 23 22 22 22 20 18 18 18 17 16 15 15 15 13 11 9 7 6 5 5 5 6 6 6 4 4 3 3 2 3 3 4 4 3
30 31 31 30 29 28 27 26 25 24 23 23 22 20 19 19 19 18 17 17 16 15 12 11 9 8 7 7 7 7 7 7 6 5 4 4 3 3 3 4 4 4
30 31 31 31 30 30 30 29 27 26 25 24 23 22 22 21 20 20 19 18 18 16 14 12 12 10 9 9 9 9 9 8 7 6 5 4 3 3 4 4 3 4
31 32 32 32 31 32 32 31 30 29 27 26 25 24 24 23 23 22 21 20 19 18 16 15 14 13 12 11 11 10 10 9 8 7 6 5 4 3 4 4 3 3
33 33 33 33 33 33 33 33 33 32 29 27 27 27 26 25 25 25 24 22 21 20 19 17 16 15 14 13 13 12 11 10 9 8 7 5 5 3 2 4 3 3
34 33 34 34 34 34 33 33 33 33 31 29 29 29 29 28 27 27 26 25 24 23 21 20 18 17 16 15 15 14 12 11 11 10 9 7 5 5 3 2 3 3
34 34 34 34 34 34 34 33 33 34 32 31 30 31 30 30 29 29 28 27 26 25 24 22 20 18 17 16 16 15 13 12 12 11 11 9 6 6 5 1 1 2
33 34 34 34 34 33 33 33 34 34 34 32 31 32 32 32 32 31 31 29 28 27 25 23 21 19 18 18 17 15 14 13 13 12 12 10 9 8 6 3 2 1
34 34 34 34 34 33 33 34 34 35 35 34 33 34 34 34 34 34 33 31 29 28 26 23 21 19 19 19 18 16 15 14 13 12 11 11 10 8 6 4 3 3
33 34 34 34 35 35 34 34 35 35 36 36 35 36 36 36 36 35 34 32 31 29 27 23 21 20 21 20 19 18 17 15 13 13 12 12 10 8 6 5 4 6
32 34 34 34 35 37 37 36 35 36 37 38 38 38 39 39 38 37 36 34 32 31 28 23 21 22 22 21 21 20 18 16 15 13 13 12 10 8 8 8 8 8
31 32 34 35 36 37 38 38 37 37 38 40 40 40 41 40 39 38 38 36 34 31 27 22 21 22 22 22 22 20 18 16 15 13 13 14 11 10 11 11 10 8
31 31 32 34 36 38 38 39 39 39 39 40 41 42 42 42 42 42 41 39 36 31 24 21 22 22 22 23 22 20 18 16 14 14 16 16 12 12 14 13 11 9
32 31 32 33 34 36 38 40 40 40 39 40 42 43 45 46 45 46 46 42 36 29 24 22 23 23 23 24 22 19 17 16 15 16 18 17 14 14 16 15 12 10
Wind_Direction
166 167 166 164 159 155 154 152 149 144 137 128 117 111 104 95 90 88 78 68 60 53 49 46 47 45 45 48 47 46 46 47 51 55 60 69 74 74 70 66 64 61
172 172 171 168 164 164 162 157 154 149 141 130 122 117 112 105 102 98 84 73 65 58 54 49 48 46 44 46 42 38 38 41 48 52 53 59 64 69 72 69 63 58
179 179 177 175 172 171 167 162 161 157 147 136 131 128 122 117 116 109 97 83 71 63 60 55 50 46 43 43 40 37 37 41 46 45 44 53 53 52 64 70 68 70
184 185 183 179 178 177 172 170 170 166 158 147 143 142 134 129 129 121 107 94 82 70 63 62 56 48 42 42 42 40 39 41 45 42 40 56 56 50 62 68 71 83
188 190 186 182 183 184 181 179 177 172 167 160 156 152 144 145 146 126 109 100 90 74 66 70 65 55 47 44 41 40 41 41 43 40 38 54 63 64 73 73 77 95
192 194 190 186 187 189 188 184 179 177 175 169 169 166 156 163 174 142 112 97 85 71 63 71 71 66 55 45 40 38 39 41 44 43 43 53 67 81 89 94 105 119
193 194 192 191 192 195 194 189 183 183 181 176 179 178 168 175 194 183 143 108 89 53 11 37 71 76 66 49 38 33 32 36 43 43 44 58 76 99 110 121 129 131
196 195 194 194 196 197 198 197 191 188 186 186 190 188 180 189 208 212 209 203 216 275 294 298 337 72 70 53 31 24 21 25 37 33 34 56 80 100 108 117 126 125
200 199 198 199 200 200 201 202 198 193 191 193 197 196 194 203 217 223 226 234 250 255 260 264 264 294 52 38 9 359 359 358 14 18 23 46 77 100 105 106 112 117
205 204 204 204 205 204 204 205 203 199 196 197 201 203 204 211 222 230 233 236 245 250 253 253 250 260 286 290 296 303 311 313 317 335 356 47 81 100 108 107 98 99
209 209 208 208 209 209 208 208 209 208 204 202 206 208 210 217 225 231 233 235 242 248 253 252 250 255 258 252 261 270 268 264 257 253 248 179 138 130 134 135 130 112
211 212 212 211 213 214 214 213 213 214 212 211 213 215 217 223 227 231 233 236 242 248 252 252 252 255 254 250 252 253 251 244 231 223 226 214 180 170 169 164 157 144
213 214 215 215 215 217 218 217 216 217 216 216 217 218 219 224 227 230 234 238 243 248 249 250 253 254 252 250 250 251 249 242 231 227 229 223 198 173 169 165 156 149
217 217 217 217 218 219 220 221 220 219 218 218 218 218 222 226 228 232 236 240 244 248 247 249 253 250 244 243 241 240 242 242 239 236 233 230 211 175 165 161 151 151
220 220 220 220 220 221 222 224 225 224 222 220 218 219 224 227 231 236 239 241 243 244 243 247 252 249 246 244 241 238 236 236 235 235 240 246 231 182 165 168 154 144
223 223 223 223 222 222 223 225 228 229 227 223 220 221 225 228 231 237 241 242 242 242 241 243 245 246 246 246 245 242 236 230 229 233 242 252 250 207 166 165 166 144
229 228 227 226 226 225 225 225 227 229 228 224 221 222 226 229 232 236 239 241 241 241 240 240 241 243 244 244 243 239 231 227 229 230 230 240 258 254 183 146 156 160
232 233 231 230 230 229 228 227 227 229 228 224 222 224 227 230 233 235 237 239 239 238 236 237 239 242 243 242 237 232 227 226 226 223 220 225 242 256 247 135 126 148
235 236 235 234 234 233 232 230 229 229 228 225 224 224 227 230 233 234 235 237 237 236 235 236 238 241 243 239 232 228 226 223 220 217 217 219 224 239 247 231 101 126
237 238 238 237 237 236 235 233 231 230 229 227 224 224 227 231 232 233 234 235 236 236 236 236 239 241 240 234 229 226 223 218 216 214 217 219 220 224 235 261 303 252
237 239 240 239 238 238 238 237 235 232 229 227 225 226 229 232 233 233 233 233 234 235 234 234 237 237 233 229 225 221 217 215 214 214 219 222 217 216 231 262 271 204
237 238 240 240 239 239 239 240 238 234 230 228 227 228 231 233 234 234 234 233 233 232 231 232 233 230 226 224 221 218 215 212 212 219 228 229 222 217 221 219 193 174
239 238 239 240 239 238 239 240 239 235 232 230 228 228 230 231 232 233 233 233 232 230 228 228 228 225 223 222 220 218 214 209 215 227 227 220 214 204 188 172 162 165
240 240 240 240 238 238 239 239 239 236 233 231 230 230 230 230 231 231 229 228 228 225 221 224 226 223 221 222 221 218 214 216 225 225 208 198 196 186 176 170 164 166
241 241 242 241 240 240 240 238 238 237 235 233 232 231 230 229 229 229 227 226 225 221 219 224 227 223 222 223 220 216 218 226 229 216 203 202 201 189 183 182 180 179
243 242 242 242 242 243 242 239 238 237 235 233 232 231 230 229 229 229 227 223 220 217 219 222 223 222 223 221 216 218 226 229 223 213 210 211 208 198 193 191 190 191